DateTime,F1_A11,F1_S11,BsB_S11,BsG_S11,BsR_S11,BbsB_S11,BbsG_S11,BbsR_S11,BaB_A11,BaG_A11,BaR_A11,T_S11,U_S11,P_S11,T1_A11
2016-09-04T00:00:00Z,0000380,20000600,,,,,,,,,,27.0,01.0,0658.0,34.7
2016-09-04T00:01:00Z,0000380,20000600,,,,,,,,,,27.0,01.0,0658.0,34.7
2016-09-04T00:02:00Z,0000380,20000600,,,,,,,,,,27.0,01.0,0658.0,34.7
2016-09-04T00:03:00Z,0000380,60000600,,,,,,,,,,27.1,01.0,0658.0,34.7
2016-09-04T00:04:00Z,0000380,41000600,0001.04,0000.66,0000.41,-000.10,-000.05,0000.45,-000.10,-000.08,-000.06,27.1,01.2,0658.8,34.7
2016-09-04T00:05:00Z,0000380,01000600,-000.18,-000.52,-000.32,-000.37,0000.40,0000.06,-000.01,0000.13,0000.04,27.1,01.2,0658.8,34.7
2016-09-04T00:06:00Z,0000380,01000600,0000.35,-000.20,-000.02,0000.43,0000.24,-000.14,0000.01,0000.04,0000.19,27.1,01.1,0658.8,34.7
2016-09-04T00:07:00Z,0000380,01000600,0000.32,-000.29,0000.28,0000.43,0000.11,0000.06,0000.06,-000.00,-000.04,27.1,01.2,0658.9,34.7
2016-09-04T00:08:00Z,0000380,01000600,-000.08,0000.11,0000.17,-000.05,0000.24,0000.24,0000.03,0000.00,0000.13,27.1,01.2,0658.9,34.7
2016-09-04T00:09:00Z,0000380,01000600,-000.04,-000.13,0000.30,-000.47,0000.26,0000.53,-000.07,0000.24,0000.20,27.1,01.2,0658.9,34.7
2016-09-04T00:10:00Z,0000380,01000600,0000.79,-000.07,-000.08,-000.96,0000.14,0000.37,0000.08,-000.11,-000.09,27.2,01.3,0658.9,34.7
2016-09-04T00:11:00Z,0000380,01000600,0000.53,0000.03,0000.22,-000.76,-000.16,0000.05,-000.13,-000.11,0000.05,27.2,01.2,0658.9,34.7
2016-09-04T00:12:00Z,0000380,01000600,0000.11,0000.24,0000.41,-000.18,0000.03,0000.19,0000.12,0000.13,-000.19,27.2,01.2,0658.9,34.7
2016-09-04T00:13:00Z,0000380,01000600,0000.49,0000.05,0000.52,0000.00,-000.05,0000.05,0000.07,0000.16,0000.08,27.2,01.3,0658.9,34.7
2016-09-04T00:14:00Z,0000380,01000600,0000.76,0000.78,0000.19,-000.35,-000.14,-000.02,0000.10,-000.05,0000.14,27.2,01.3,0658.9,34.7
2016-09-04T00:15:00Z,0000380,01000600,0000.23,0000.47,0000.11,-000.34,0000.14,0000.45,0000.04,0000.10,-000.27,27.2,01.3,0658.9,34.7
2016-09-04T00:16:00Z,0000380,01000600,0000.56,0000.42,0000.02,-001.05,0000.10,0000.18,0000.12,0000.06,0000.11,27.2,01.3,0658.9,34.7
2016-09-04T00:17:00Z,0000380,01000600,0001.00,0000.17,0000.34,0000.13,-000.13,0000.11,-000.06,-000.02,0000.08,27.2,01.3,0658.9,34.7
2016-09-04T00:18:00Z,0000380,01000600,0000.81,0000.41,-000.21,0000.29,-000.02,-000.35,-000.01,-000.16,-000.08,27.2,01.3,0658.9,34.7
2016-09-04T00:19:00Z,0000380,01000600,0001.34,0000.66,-000.20,-000.26,0000.19,0000.14,-000.01,0000.17,0000.16,27.2,01.2,0658.9,34.7
2016-09-04T00:20:00Z,0000380,01000600,0000.95,0000.17,0000.35,-000.47,0000.18,-000.14,0000.17,-000.04,-000.09,27.2,01.2,0658.9,34.7
2016-09-04T00:21:00Z,0000380,01000600,0000.88,0000.66,0000.40,-000.26,-000.05,0000.42,-000.15,0000.06,0000.15,27.2,01.2,0658.9,34.7
2016-09-04T00:22:00Z,0000380,01000600,0001.74,0000.74,-000.09,0000.72,0000.02,0000.06,0000.14,-000.16,-000.10,27.2,01.3,0658.9,34.7
2016-09-04T00:23:00Z,0000380,01000600,0001.46,0000.48,0000.45,0000.45,-000.19,0000.05,-000.14,0000.16,0000.12,27.2,01.2,0658.9,34.7
2016-09-04T00:24:00Z,0000380,01000600,0000.94,0000.22,0000.37,-000.24,-000.13,-000.03,0000.00,-000.04,-000.04,27.1,01.3,0658.9,34.7
2016-09-04T00:25:00Z,0000380,01000600,0000.56,-000.55,0000.36,0000.00,0000.06,-000.32,0000.02,0000.00,-000.10,27.1,01.3,0658.8,34.7
2016-09-04T00:26:00Z,0000380,01000600,0000.74,-000.03,0000.38,0000.50,0000.18,-000.26,0000.13,0000.02,0000.18,27.1,01.3,0658.8,34.7
2016-09-04T00:27:00Z,0000380,01000600,0000.65,0000.02,0000.15,-000.11,0000.03,-000.29,-000.11,-000.06,-000.32,27.1,01.2,0658.8,34.7
2016-09-04T00:28:00Z,0000380,01000600,0000.78,0000.03,0000.31,0000.35,0000.26,-000.08,0000.15,-000.02,0000.45,27.1,01.3,0658.8,34.7
2016-09-04T00:29:00Z,0000380,01000600,0000.47,0000.70,0000.13,-000.10,-000.22,0000.05,0000.01,0000.08,-000.17,27.0,01.3,0658.8,34.7
2016-09-04T00:30:00Z,0000380,01000600,0000.03,-000.10,0000.34,-000.76,0000.32,0000.24,-000.17,-000.05,0000.09,27.0,01.3,0658.8,34.7
2016-09-04T00:31:00Z,0000380,01000600,-000.51,-000.14,-000.08,-000.14,-000.10,0000.08,0000.08,0000.18,0000.06,27.0,01.3,0658.8,34.7
2016-09-04T00:32:00Z,0000380,01000600,0001.30,0000.34,0000.76,-000.34,0000.42,0000.29,0000.13,0000.02,-000.23,27.0,01.3,0658.8,34.7
2016-09-04T00:33:00Z,0000380,01000600,0000.84,0000.62,0000.28,-000.14,-000.03,0000.24,-000.02,-000.08,0000.21,27.0,01.3,0658.8,34.7
2016-09-04T00:34:00Z,0000380,01000600,0001.23,0000.00,0000.38,0000.24,-000.14,0000.29,-000.06,0000.08,-000.10,27.0,01.2,0658.8,34.7
2016-09-04T00:35:00Z,0000380,01000600,0000.59,0000.50,0000.52,-000.23,0000.37,-000.16,0000.03,0000.08,0000.32,27.0,01.3,0658.8,34.7
2016-09-04T00:36:00Z,0000380,01000600,0000.09,-000.25,-000.06,-000.18,-000.19,0000.03,-000.05,-000.07,-000.15,27.0,01.3,0658.8,34.7
2016-09-04T00:37:00Z,0000380,01000600,0000.79,0000.74,-000.21,-000.21,-000.22,0000.00,0000.11,0000.03,0000.08,27.1,01.2,0658.8,34.7
2016-09-04T00:38:00Z,0000380,01000600,0000.77,0000.50,0000.01,-000.26,0000.10,0000.56,-000.01,0000.12,-000.20,27.0,01.2,0658.8,34.7
2016-09-04T00:39:00Z,0000380,01000600,0000.22,0000.07,-000.09,0000.05,0000.19,0000.26,0000.07,0000.13,0000.48,27.1,01.3,0658.8,34.7
2016-09-04T00:40:00Z,0000380,01000600,-000.51,0000.13,0000.38,-001.01,-000.08,0000.00,-000.16,-000.12,-000.18,27.1,01.2,0658.8,34.7
2016-09-04T00:41:00Z,0000380,01000600,0000.74,-000.69,0000.17,0000.05,0000.27,0000.11,0000.03,-000.02,-000.03,27.1,01.2,0658.8,34.7
2016-09-04T00:42:00Z,0000380,01000600,0001.74,-000.02,0000.27,0000.53,-000.02,0000.10,0000.12,0000.04,-000.14,27.1,01.3,0658.8,34.7
2016-09-04T00:43:00Z,0000380,01000600,0000.43,0000.13,0000.07,-000.23,0000.05,-000.05,0000.02,0000.06,0000.18,27.1,01.3,0658.8,34.7
2016-09-04T00:44:00Z,0000380,01000600,0000.65,0000.07,-000.28,0000.11,-000.42,-000.02,0000.12,-000.00,0000.08,27.1,01.2,0658.8,34.7
2016-09-04T00:45:00Z,0000380,01000600,0000.26,0000.68,0000.52,-000.80,0000.18,-000.06,-000.21,-000.06,-000.32,27.1,01.3,0658.8,34.8
2016-09-04T00:46:00Z,0000380,01000600,0000.97,0000.32,0000.20,-000.32,0000.19,-000.13,0000.14,0000.26,0000.42,27.2,01.2,0658.9,34.8
2016-09-04T00:47:00Z,0000380,01000600,0000.88,0000.51,0000.14,-000.76,0000.61,0000.10,0000.17,-000.08,0000.07,27.2,01.3,0658.9,34.8
2016-09-04T00:48:00Z,0000380,01000600,0001.19,0000.07,0000.33,-000.06,0000.13,-000.11,-000.21,0000.08,-000.22,27.2,01.2,0658.9,34.8
2016-09-04T00:49:00Z,0000380,01000600,0000.05,0000.94,0000.52,-000.11,0000.11,0000.13,0000.17,-000.06,0000.19,27.2,01.2,0658.9,34.8
2016-09-04T00:50:00Z,0000380,01000600,0000.17,0000.47,-000.07,0000.16,-000.14,0000.00,0000.08,-000.07,-000.19,27.2,01.2,0658.9,34.8
2016-09-04T00:51:00Z,0000380,01000600,0000.71,0000.24,0000.03,-000.24,-000.03,0000.11,-000.11,0000.20,0000.19,27.2,01.2,0658.9,34.8
2016-09-04T00:52:00Z,0000380,01000600,0000.40,0000.05,0000.23,-000.21,0000.35,-000.02,0000.16,-000.19,-000.26,27.2,01.2,0658.9,34.8
2016-09-04T00:53:00Z,0000380,01000600,-000.79,0000.16,0000.33,-000.14,-000.08,0000.26,-000.11,0000.14,0000.15,27.2,01.2,0658.9,34.8
2016-09-04T00:54:00Z,0000380,01000600,0000.51,-000.14,0000.55,-000.08,-000.03,-000.16,-000.02,-000.05,-000.14,27.2,01.2,0658.9,34.8
2016-09-04T00:55:00Z,0000380,01000600,0000.52,-000.26,0000.46,0000.08,-000.11,-000.32,0000.19,0000.06,0000.14,27.2,01.3,0658.9,34.8
2016-09-04T00:56:00Z,0000380,01000600,0000.96,0000.66,0000.14,-000.68,-000.14,0000.03,0000.02,-000.02,-000.07,27.2,01.2,0658.9,34.8
2016-09-04T00:57:00Z,0000380,40000600,,,,,,,,,,,,0658.9,34.8
2016-09-04T00:58:00Z,0000380,60000600,,,,,,,,,,27.0,01.1,0658.0,34.8
2016-09-04T00:59:00Z,0000380,20000600,,,,,,,,,,27.0,01.1,0657.9,34.8
2016-09-04T01:00:00Z,0000380,20000600,,,,,,,,,,27.0,01.1,0657.9,34.7
2016-09-04T01:01:00Z,0000380,20000600,,,,,,,,,,27.0,01.1,0657.9,34.7
2016-09-04T01:02:00Z,0000380,20000600,,,,,,,,,,27.0,01.1,0657.9,34.7
2016-09-04T01:03:00Z,0000380,60000600,,,,,,,,,,27.1,01.1,0657.9,34.7
2016-09-04T01:04:00Z,0000380,41000600,0001.05,0000.94,0000.31,0000.45,0000.18,0000.26,0000.15,0000.07,-000.19,27.2,01.3,0658.8,34.7
2016-09-04T01:05:00Z,0000380,01000600,0001.91,0000.87,0000.99,-000.29,0000.43,-000.03,-000.10,0000.05,0000.59,27.1,01.3,0658.9,34.7
2016-09-04T01:06:00Z,0000380,01000600,0000.08,0001.07,0000.29,-000.79,0000.61,0000.23,-000.11,-000.08,-000.53,27.2,01.3,0658.9,34.7
2016-09-04T01:07:00Z,0000380,01000600,0001.21,0000.84,0000.50,-000.51,0000.18,-000.10,-000.08,-000.00,0000.01,27.1,01.3,0658.9,34.7
2016-09-04T01:08:00Z,0000380,01000600,-000.58,0000.67,0000.40,-000.32,0000.59,0000.13,0000.21,0000.09,0000.23,27.2,01.3,0658.9,34.7
2016-09-04T01:09:00Z,0000380,01000600,0000.07,0000.71,0000.12,0000.03,0000.06,0000.05,-000.16,-000.03,0000.11,27.2,01.2,0658.9,34.7
2016-09-04T01:10:00Z,0000380,01000600,0000.18,0000.28,0000.41,-000.11,-000.18,-000.13,0000.15,0000.10,-000.19,27.2,01.3,0658.9,34.7
2016-09-04T01:11:00Z,0000380,01000600,0000.51,0000.70,0000.30,-000.05,0000.13,0000.10,-000.02,0000.09,0000.08,27.2,01.3,0658.9,34.7
2016-09-04T01:12:00Z,0000380,01000600,0001.56,0000.65,0000.37,-000.31,0000.08,-000.02,0000.18,-000.13,0000.24,27.3,01.2,0658.9,34.7
2016-09-04T01:13:00Z,0000380,01000600,0001.25,0001.13,0000.62,-000.16,0000.54,-000.18,0000.10,0000.00,0000.04,27.2,01.3,0658.9,34.7
2016-09-04T01:14:00Z,0000380,01000600,-000.37,0000.08,0000.91,0000.16,0000.24,0000.24,0000.03,0000.08,-000.37,27.3,01.3,0658.9,34.7
2016-09-04T01:15:00Z,0000380,01000600,0001.25,0001.08,0000.65,0000.58,0000.14,-000.10,-000.08,-000.02,0000.35,27.2,01.3,0658.9,34.7
2016-09-04T01:16:00Z,0000380,01000600,0001.60,0000.50,0000.31,-000.19,0000.10,0000.06,-000.04,-000.01,-000.04,27.2,01.3,0658.9,34.7
2016-09-04T01:17:00Z,0000380,01000600,0001.33,0000.37,0000.56,-000.58,0000.45,0000.03,0000.13,-000.10,-000.38,27.3,01.3,0658.9,34.7
2016-09-04T01:18:00Z,0000380,01000600,0001.47,0000.45,0000.32,-000.11,-000.08,-000.03,-000.06,0000.11,0000.26,27.2,01.3,0658.9,34.7
2016-09-04T01:19:00Z,0000380,01000600,0000.02,0000.94,-000.07,-000.13,0000.05,0000.06,-000.13,-000.03,-000.10,27.2,01.3,0658.9,34.7
2016-09-04T01:20:00Z,0000380,01000600,0000.13,0000.31,0000.50,-000.23,0000.48,-000.03,0000.32,-000.03,-000.03,27.2,01.3,0658.9,34.7
2016-09-04T01:21:00Z,0000380,01000600,0000.77,0000.96,0000.19,0000.45,-000.14,-000.03,-000.20,0000.24,0000.03,27.2,01.3,0658.9,34.7
2016-09-04T01:22:00Z,0000380,01000600,0001.35,0000.54,0001.11,-000.63,0000.35,0000.45,0000.07,-000.28,-000.14,27.2,01.3,0658.9,34.7
2016-09-04T01:23:00Z,0000380,01000600,0001.14,0000.97,0000.30,-000.24,-000.19,-000.27,0000.02,0000.31,0000.21,27.2,01.3,0658.9,34.7
2016-09-04T01:24:00Z,0000380,00000600,0001.14,0000.50,0000.64,-000.37,0000.38,0000.21,0000.12,-000.15,-000.01,27.2,01.3,0658.9,34.7
2016-09-04T01:25:00Z,0000380,01000600,0001.89,0000.53,0001.01,0000.31,0000.24,0000.26,-000.22,0000.02,0000.05,27.2,01.3,0658.9,34.7
2016-09-04T01:26:00Z,0000380,01000600,0000.85,0000.34,0000.15,-000.13,0000.43,0000.06,-000.05,0000.01,-000.10,27.1,01.3,0658.9,34.7
2016-09-04T01:27:00Z,0000380,01000600,0001.16,0000.38,0000.04,-000.47,0000.03,0000.06,0000.23,0000.23,0000.28,27.2,01.3,0658.9,34.7
2016-09-04T01:28:00Z,0000380,01000600,0000.17,0000.31,0000.78,-000.63,-000.48,0000.23,-000.19,-000.15,-000.14,27.2,01.3,0658.8,34.7
2016-09-04T01:29:00Z,0000380,01000600,0001.27,0001.00,0000.87,-000.08,0000.34,0000.31,0000.17,0000.11,0000.13,27.2,01.3,0658.8,34.7
2016-09-04T01:30:00Z,0000380,01000600,0000.45,0001.01,0000.55,-000.69,0000.32,-000.06,-000.03,0000.02,0000.03,27.2,01.3,0658.8,34.8
2016-09-04T01:31:00Z,0000380,01000600,0000.80,0000.52,0000.35,-000.87,0000.26,0000.29,0000.05,-000.01,-000.02,27.2,01.4,0658.8,34.8
2016-09-04T01:32:00Z,0000380,01000600,0001.45,0000.38,0000.31,-000.03,0000.50,0000.06,0000.10,-000.01,0000.11,27.2,01.3,0658.8,34.8
2016-09-04T01:33:00Z,0000380,01000600,0001.39,0000.47,0000.52,0000.35,0000.14,-000.03,-000.04,-000.04,0000.10,27.2,01.3,0658.8,34.8
2016-09-04T01:34:00Z,0000380,01000600,0001.01,0000.42,0000.68,0000.06,0000.08,-000.31,0000.10,0000.06,0000.09,27.2,01.4,0658.8,34.8
2016-09-04T01:35:00Z,0000380,01000600,0000.50,0000.54,0000.91,-000.55,0000.24,0000.34,-000.03,0000.10,-000.38,27.2,01.3,0658.8,34.8
2016-09-04T01:36:00Z,0000380,01000600,0000.45,0000.57,0000.78,-000.19,0000.26,0000.08,0000.01,0000.09,0000.16,27.2,01.3,0658.8,34.8
2016-09-04T01:37:00Z,0000380,01000600,0000.23,0000.52,0000.60,0000.11,0000.26,0000.13,0000.17,-000.07,0000.08,27.2,01.3,0658.8,34.8
2016-09-04T01:38:00Z,0000380,01000600,0001.12,0000.73,0000.81,-001.13,0000.74,0000.27,-000.18,0000.07,0000.13,27.2,01.4,0658.8,34.8
2016-09-04T01:39:00Z,0000380,01000600,0000.35,0000.79,0000.51,-000.31,0000.40,-000.06,0000.12,-000.03,-000.08,27.3,01.4,0658.8,34.8
2016-09-04T01:40:00Z,0000380,01000600,0001.42,0000.80,-000.21,-000.02,0000.37,-000.40,-000.00,0000.04,0000.09,27.3,01.4,0658.9,34.8
2016-09-04T01:41:00Z,0000380,01000600,0001.06,0000.28,0000.88,-000.48,0000.53,0000.10,-000.11,0000.04,-000.12,27.3,01.3,0658.9,34.8
2016-09-04T01:42:00Z,0000380,01000600,0000.36,0000.02,0000.29,-000.02,0000.53,0000.16,0000.30,-000.04,0000.11,27.2,01.3,0658.9,34.8
2016-09-04T01:43:00Z,0000380,01000600,0000.00,0000.56,0000.67,-000.03,0000.75,-000.16,-000.14,0000.05,-000.34,27.2,01.4,0658.9,34.8
2016-09-04T01:44:00Z,0000380,01000600,0001.27,0000.48,0001.11,-000.42,0000.13,-000.16,0000.04,-000.05,0000.09,27.2,01.2,0658.9,34.8
2016-09-04T01:45:00Z,0000380,01000600,0001.54,0001.36,0000.54,-000.18,0000.37,0000.02,-000.01,0000.08,0000.28,27.2,01.3,0658.9,34.7
2016-09-04T01:46:00Z,0000380,01000600,0001.03,0000.59,0000.20,0000.05,0000.02,-000.16,-000.01,0000.11,-000.11,27.2,01.4,0658.9,34.7
2016-09-04T01:47:00Z,0000380,01000600,0001.28,0000.64,0000.70,0000.02,0000.08,0000.18,-000.03,0000.10,-000.09,27.3,01.3,0658.9,34.7
2016-09-04T01:48:00Z,0000380,01000600,0000.39,0000.75,0000.22,0000.79,0000.22,0000.11,-000.03,-000.29,0000.17,27.3,01.3,0658.9,34.7
2016-09-04T01:49:00Z,0000380,01000600,0000.64,0000.86,0000.71,0000.06,0000.30,-000.02,0000.16,0000.09,-000.02,27.2,01.3,0658.8,34.7
2016-09-04T01:50:00Z,0000380,01000600,0000.10,0000.16,0000.70,-000.47,0000.19,0000.13,-000.02,-000.00,0000.03,27.3,01.3,0658.9,34.7
2016-09-04T01:51:00Z,0000380,01000600,0001.10,0001.10,0000.40,-000.68,0000.11,-000.06,0000.01,0000.11,-000.08,27.2,01.3,0658.9,34.7
2016-09-04T01:52:00Z,0000380,01000600,-000.32,0000.54,0000.67,-000.59,0000.70,0000.39,0000.09,0000.05,0000.08,27.2,01.3,0658.9,34.7
2016-09-04T01:53:00Z,0000380,01000600,0000.00,0000.45,0000.53,0000.18,0000.21,0000.50,-000.09,-000.07,0000.11,27.3,01.3,0658.9,34.7
2016-09-04T01:54:00Z,0000380,01000600,0001.51,0000.39,0000.04,-000.24,0000.11,0000.08,0000.15,0000.06,-000.10,27.2,01.4,0658.9,34.7
2016-09-04T01:55:00Z,0000380,01000600,0000.75,0001.04,0000.14,-000.05,0000.19,0000.00,-000.06,-000.00,-000.20,27.3,01.3,0658.8,34.7
2016-09-04T01:56:00Z,0000380,01000600,0001.66,0000.89,0000.38,-000.39,0000.19,-000.29,0000.09,0000.07,0000.23,27.2,01.3,0658.7,34.7
2016-09-04T01:57:00Z,0000380,40000600,,,,,,,,,,,,0658.7,34.7
2016-09-04T01:58:00Z,0000380,60000600,,,,,,,,,,27.2,01.1,0657.8,34.7
2016-09-04T01:59:00Z,0000380,20000600,,,,,,,,,,27.2,01.1,0657.7,34.7
2016-09-04T02:00:00Z,0000380,20000600,,,,,,,,,,27.2,01.2,0657.7,34.7
2016-09-04T02:01:00Z,0000380,20000600,,,,,,,,,,27.2,01.3,0657.7,34.7
2016-09-04T02:02:00Z,0000380,20000600,,,,,,,,,,27.2,01.3,0657.8,34.7
2016-09-04T02:03:00Z,0000380,60000600,,,,,,,,,,27.2,01.3,0657.8,34.7
2016-09-04T02:04:00Z,0000380,40000600,0000.75,0000.59,0000.07,0000.37,-000.06,0000.14,0000.03,0000.03,0000.25,27.2,01.4,0658.7,34.7
2016-09-04T02:05:00Z,0000380,01000600,0000.69,-000.39,0000.27,0000.24,0000.16,0000.35,-000.10,-000.08,-000.19,27.2,01.3,0658.7,34.7
2016-09-04T02:06:00Z,0000380,01000600,0000.79,0000.08,0000.20,-000.13,0000.46,0000.76,0000.20,0000.11,0000.07,27.3,01.4,0658.7,34.7
2016-09-04T02:07:00Z,0000380,00000600,-000.25,0000.44,0000.38,-000.29,0000.42,0000.42,0000.02,0000.11,0000.36,27.2,01.4,0658.7,34.7
2016-09-04T02:08:00Z,0000380,01000600,0001.35,0000.30,0000.27,0000.56,0000.11,0000.32,-000.05,-000.12,-000.44,27.3,01.4,0658.7,34.7
2016-09-04T02:09:00Z,0000380,00000600,-000.30,0000.46,0000.64,0000.03,0000.14,0000.02,-000.01,0000.23,0000.23,27.3,01.5,0658.8,34.7
2016-09-04T02:10:00Z,0000380,00000600,0000.78,0000.28,0000.13,0000.24,-000.18,0000.35,-000.05,-000.00,-000.17,27.3,01.4,0658.7,34.7
2016-09-04T02:11:00Z,0000380,01000600,0001.48,0000.44,-000.20,0000.58,0000.14,0000.05,0000.13,0000.02,0000.29,27.3,01.4,0658.7,34.7
2016-09-04T02:12:00Z,0000380,00000600,0001.10,-000.14,-000.17,0000.64,0000.90,-000.02,0000.01,0000.06,0000.06,27.3,01.4,0658.8,34.7
2016-09-04T02:13:00Z,0000380,01000600,0000.49,-000.11,-000.03,0000.50,0000.03,-000.18,0000.01,0000.05,-000.05,27.3,01.4,0658.8,34.7
2016-09-04T02:14:00Z,0000380,01000600,-000.14,0000.49,0000.59,0000.08,0000.06,0000.06,-000.04,-000.09,0000.11,27.3,01.4,0658.8,34.7
2016-09-04T02:15:00Z,0000380,01000600,0001.03,0000.47,-000.05,0000.16,0000.34,0000.02,0000.07,0000.01,-000.27,27.3,01.4,0658.8,34.7
2016-09-04T02:16:00Z,0000380,01000600,0000.57,-000.03,0000.14,0000.18,0000.06,-000.02,0000.11,0000.05,0000.14,27.3,01.4,0658.8,34.7
2016-09-04T02:17:00Z,0000380,01000600,0001.40,0000.50,0000.30,0000.18,-000.14,0000.13,-000.15,-000.03,0000.08,27.3,01.4,0658.7,34.7
2016-09-04T02:18:00Z,0000380,01000600,0000.70,0001.22,0000.09,0000.32,0000.26,0000.14,0000.16,0000.03,-000.01,27.3,01.5,0658.7,34.7
2016-09-04T02:19:00Z,0000380,00000600,0000.64,0000.28,0000.03,-000.08,0000.42,0000.03,-000.14,0000.11,-000.11,27.3,01.4,0658.7,34.7
2016-09-04T02:20:00Z,0000380,01000600,0000.22,-000.06,-000.13,0000.29,-000.24,0000.27,0000.10,-000.15,0000.10,27.3,01.4,0658.7,34.7
2016-09-04T02:21:00Z,0000380,00000600,-000.07,0000.20,-000.23,-000.13,0000.13,0000.08,-000.00,0000.14,0000.15,27.3,01.4,0658.7,34.7
2016-09-04T02:22:00Z,0000380,00000600,0001.00,0000.72,0000.09,-000.13,0000.13,0000.19,-000.05,0000.00,-000.00,27.3,01.4,0658.7,34.7
2016-09-04T02:23:00Z,0000380,00000600,0000.76,-000.10,0000.39,0000.76,0000.27,-000.10,-000.08,-000.13,-000.17,27.3,01.5,0658.7,34.7
2016-09-04T02:24:00Z,0000380,00000600,0001.03,0000.39,0000.08,0000.23,0000.61,-000.06,0000.00,0000.03,0000.11,27.2,01.6,0658.7,34.7
2016-09-04T02:25:00Z,0000380,00000600,0000.46,0000.28,0000.20,0000.50,0000.40,-000.02,0000.17,0000.11,-000.16,27.3,01.5,0658.7,34.7
2016-09-04T02:26:00Z,0000380,00000600,0001.18,0000.26,0000.14,0000.11,-000.16,0000.32,0000.00,-000.03,0000.26,27.3,01.6,0658.7,34.7
2016-09-04T02:27:00Z,0000380,00000600,0001.05,0000.42,0000.37,0000.51,0000.11,0000.11,0000.01,0000.12,0000.01,27.3,01.5,0658.6,34.7
2016-09-04T02:28:00Z,0000380,01000600,0000.95,0000.27,0000.29,0000.19,-000.08,0000.24,-000.12,-000.09,-000.00,27.3,01.5,0658.6,34.7
2016-09-04T02:29:00Z,0000380,00000600,-000.38,-000.14,0000.25,0000.21,0000.30,0000.10,0000.18,0000.12,0000.38,27.3,01.6,0658.6,34.7
2016-09-04T02:30:00Z,0000380,00000600,0000.92,0000.25,-000.04,-000.19,0000.03,0000.19,-000.02,-000.10,-000.18,27.3,01.6,0658.6,34.8
2016-09-04T02:31:00Z,0000380,01000600,0000.79,0000.09,0000.95,0000.16,0000.21,0000.43,-000.06,0000.14,-000.18,27.3,01.6,0658.6,34.8
2016-09-04T02:32:00Z,0000380,00000600,0001.10,0000.74,0000.17,0000.10,-000.38,-000.27,0000.10,-000.02,0000.12,27.3,01.6,0658.6,34.8
2016-09-04T02:33:00Z,0000380,00000600,0000.41,0000.65,0000.58,0000.16,0000.05,0000.37,0000.07,0000.23,0000.20,27.3,01.6,0658.6,34.8
2016-09-04T02:34:00Z,0000380,00000600,0000.94,0000.78,-000.36,0000.76,0000.03,-000.02,-000.12,-000.15,-000.13,27.3,01.7,0658.6,34.8
2016-09-04T02:35:00Z,0000380,00000600,0001.12,0000.24,0000.39,0000.40,-000.26,0000.10,-000.02,0000.09,-000.20,27.3,01.7,0658.6,34.8
2016-09-04T02:36:00Z,0000380,00000600,0001.46,0000.13,0000.00,0000.39,0000.06,-000.08,-000.02,-000.10,0000.04,27.3,01.6,0658.6,34.8
2016-09-04T02:37:00Z,0000380,00000600,0000.56,0000.12,-000.15,0000.02,0000.46,0000.02,0000.10,-000.02,-000.01,27.3,01.7,0658.6,34.8
2016-09-04T02:38:00Z,0000380,00000600,0000.81,0000.22,-000.20,-000.66,0000.40,0000.26,0000.15,0000.11,0000.20,27.3,01.6,0658.6,34.8
2016-09-04T02:39:00Z,0000380,00000600,0000.48,0000.42,-000.08,0000.35,0000.27,-000.11,-000.05,-000.02,0000.11,27.3,01.7,0658.6,34.8
2016-09-04T02:40:00Z,0000380,00000600,-000.47,0000.55,0000.46,-000.23,0000.14,0000.00,0000.02,-000.01,-000.11,27.3,01.6,0658.6,34.8
2016-09-04T02:41:00Z,0000380,00000600,0000.37,0000.12,0000.19,0000.37,-000.03,0000.42,0000.03,0000.07,0000.02,27.3,01.6,0658.5,34.8
2016-09-04T02:42:00Z,0000380,00000600,0001.10,0000.41,0000.15,0000.05,0000.27,0000.24,-000.05,-000.08,-000.13,27.3,01.6,0658.5,34.8
2016-09-04T02:43:00Z,0000380,00000600,0001.56,0000.57,0000.15,0000.24,0000.37,-000.11,0000.06,0000.15,0000.19,27.2,01.6,0658.6,34.8
2016-09-04T02:44:00Z,0000380,00000600,0001.16,0000.63,0000.26,0000.24,0000.40,0000.21,0000.02,-000.01,-000.07,27.2,01.6,0658.6,34.8
2016-09-04T02:45:00Z,0000380,00000600,0001.31,0000.54,0000.11,0000.43,0000.08,0000.16,-000.12,-000.06,0000.03,27.2,01.6,0658.6,34.7
2016-09-04T02:46:00Z,0000380,00000600,0000.60,0000.16,-000.22,0000.18,-000.38,0000.19,0000.20,0000.11,0000.06,27.2,01.6,0658.6,34.7
2016-09-04T02:47:00Z,0000380,00000600,0000.97,0000.66,0000.19,0000.29,0000.43,-000.02,-000.06,-000.09,-000.19,27.3,01.6,0658.5,34.7
2016-09-04T02:48:00Z,0000380,00000600,0000.84,0000.27,0000.42,0000.06,0000.06,0000.02,0000.07,0000.07,0000.35,27.3,01.6,0658.5,34.7
2016-09-04T02:49:00Z,0000380,00000600,0001.06,0000.90,0000.42,0000.72,0000.50,0000.15,-000.02,-000.03,-000.18,27.3,01.6,0658.5,34.7
2016-09-04T02:50:00Z,0000380,00000600,0000.48,0000.29,0000.14,0000.14,-000.10,0000.11,-000.06,0000.18,-000.03,27.3,01.7,0658.5,34.7
2016-09-04T02:51:00Z,0000380,00000600,0000.09,0000.16,0000.34,0000.26,0000.27,0000.32,0000.07,0000.07,0000.24,27.2,01.6,0658.5,34.7
2016-09-04T02:52:00Z,0000380,00000600,0000.62,0000.90,-000.15,0000.24,0000.13,-000.10,0000.01,-000.11,0000.07,27.2,01.7,0658.5,34.7
2016-09-04T02:53:00Z,0000380,00000600,0001.52,0000.62,0000.26,0000.98,0000.05,0000.02,-000.02,0000.15,0000.15,27.3,01.7,0658.5,34.7
2016-09-04T02:54:00Z,0000380,00000600,0000.88,0000.64,0000.13,-000.34,0000.29,-000.35,0000.06,-000.13,-000.01,27.3,01.7,0658.5,34.7
2016-09-04T02:55:00Z,0000380,00000600,0000.12,0000.49,-000.12,0000.37,-000.11,-000.06,-000.04,0000.13,-000.33,27.3,01.7,0658.5,34.7
2016-09-04T02:56:00Z,0000380,00000600,0001.38,0000.10,0000.15,0000.18,-000.05,-000.05,0000.14,-000.19,-000.10,27.3,01.7,0658.5,34.7
2016-09-04T02:57:00Z,0000380,40000600,,,,,,,,,,,,0658.4,34.7
2016-09-04T02:58:00Z,0000380,60000600,,,,,,,,,,27.2,01.6,0657.5,34.7
2016-09-04T02:59:00Z,0000380,20000600,,,,,,,,,,27.2,01.5,0657.6,34.7
2016-09-04T03:00:00Z,0000380,20000600,,,,,,,,,,27.2,01.6,0657.6,34.7
2016-09-04T03:01:00Z,0000380,20000600,,,,,,,,,,27.2,01.7,0657.6,34.7
2016-09-04T03:02:00Z,0000380,20000600,,,,,,,,,,27.2,01.7,0657.6,34.7
2016-09-04T03:03:00Z,0000380,60000600,,,,,,,,,,27.2,01.7,0657.6,34.7
2016-09-04T03:04:00Z,0000380,40000600,0001.12,0000.27,0000.10,0000.18,0000.14,-000.14,-000.10,0000.04,0000.03,27.2,01.7,0658.5,34.7
2016-09-04T03:05:00Z,0000380,00000600,0000.76,0000.35,-000.03,0000.24,0000.71,0000.35,-000.14,0000.11,-000.05,27.2,01.7,0658.5,34.7
2016-09-04T03:06:00Z,0000380,00000600,0000.39,0000.31,-000.21,-000.40,0000.26,-000.08,0000.33,0000.01,0000.10,27.2,01.7,0658.5,34.7
2016-09-04T03:07:00Z,0000380,00000600,0000.93,0001.01,0000.58,0000.26,-000.02,0000.18,-000.23,0000.12,-000.09,27.1,01.7,0658.5,34.7
2016-09-04T03:08:00Z,0000380,00000600,0000.46,0001.03,0000.08,-000.21,0000.14,-000.35,0000.04,-000.05,0000.45,27.2,01.7,0658.5,34.7
2016-09-04T03:09:00Z,0000380,00000600,0001.27,-000.29,0000.44,0000.34,0000.35,0000.21,0000.14,0000.06,-000.14,27.2,01.7,0658.5,34.7
2016-09-04T03:10:00Z,0000380,00000600,0001.21,0000.85,0000.24,0000.24,0000.30,0000.19,-000.05,-000.01,0000.08,27.2,01.8,0658.5,34.7
2016-09-04T03:11:00Z,0000380,00000600,0001.16,0000.18,-000.26,-000.23,0000.24,0000.03,0000.02,0000.05,0000.17,27.2,01.9,0658.5,34.7
2016-09-04T03:12:00Z,0000380,00000600,0001.56,0000.31,0000.22,0000.00,-000.06,-000.02,-000.10,0000.03,-000.03,27.2,01.8,0658.5,34.7